Weather History for KOSH - July, 2013

Change the Weather History Date:

Friday, July 5, 2013

  Actual Average Record
Temperature  
Mean Temperature 74 °F -  
Max Temperature 84 °F - - ()
Min Temperature 64 °F - - ()
Cooling Degree Days 9    
Growing Degree Days 24 (Base 50)    
Moisture  
Dew Point 62 °F    
Average Humidity 67    
Maximum Humidity 90    
Minimum Humidity 43    
Precipitation  
Precipitation 0.00 in - - ()
Sea Level Pressure  
Sea Level Pressure 29.98 in    
Wind  
Wind Speed 9 mph (SSW)    
Max Wind Speed 15 mph    
Max Gust Speed 24 mph    
Visibility 9 miles    
Events      
T = Trace of Precipitation, MM = Missing Value Source: NWS Daily Summary

Daily Weather History Graph

Daily Weather History Graph

Search for Another Location

Airport or City:

Trip Planner

Search our weather history database for the weather conditions in past years. The results will help you decide how hot, cold, wet, or windy it might be!

Date:

Astronomy

Jul. 05, 2013 Rise Set
Actual Time 5:17 AM CDT 8:39 PM CDT
Civil Twilight 4:42 AM CDT 9:15 PM CDT
Nautical Twilight 3:55 AM CDT 10:02 PM CDT
Astronomical Twilight 2:56 AM CDT 11:00 PM CDT
Moon 3:19 AM CDT (7/5) 6:32 PM CDT (7/5)
Length of Visible Light 16h 33m
Length of Day
15h 21m
Waning Crescent, 6% of the Moon is Illuminated
Jul 5
Waning Crescent
Jul 8
New
Jul 15
First Quarter
Jul 22
Full
Jul 29
Last Quarter

Hourly Weather History & Observations

Time (CDT) Temp. Heat Index Dew Point Humidity Pressure Visibility Wind Dir Wind Speed Gust Speed Precip Events Conditions
12:53 AM 64.9 °F - 59.0 °F 81% 30.00 in 10.0 mi South 8.1 mph - N/A   Clear
1:53 AM 64.9 °F - 60.1 °F 84% 30.00 in 8.0 mi South 6.9 mph - N/A   Clear
2:53 AM 64.9 °F - 62.1 °F 90% 29.99 in 6.0 mi South 6.9 mph - N/A   Clear
3:53 AM 66.0 °F - 62.1 °F 87% 29.99 in 7.0 mi South 8.1 mph - N/A   Clear
4:53 AM 66.0 °F - 62.1 °F 87% 29.98 in 7.0 mi South 6.9 mph - N/A   Clear
5:53 AM 64.9 °F - 61.0 °F 87% 30.00 in 6.0 mi SSW 6.9 mph - N/A   Clear
6:53 AM 66.9 °F - 62.1 °F 84% 30.01 in 7.0 mi SSW 8.1 mph - N/A   Clear
7:53 AM 71.1 °F - 62.1 °F 73% 30.01 in 9.0 mi SSW 6.9 mph - N/A   Clear
8:53 AM 73.9 °F - 63.0 °F 68% 30.02 in 10.0 mi SSW 6.9 mph - N/A   Clear
9:53 AM - - - N/A% 30.05 in - North - - N/A   Unknown
10:53 AM 80.1 °F 81.5 °F 63.0 °F 56% 30.01 in 9.0 mi North - - N/A   Clear
11:53 AM 81.0 °F 81.9 °F 62.1 °F 52% 30.00 in 6.0 mi North - - N/A   Haze
12:53 PM 82.9 °F 83.3 °F 61.0 °F 47% 29.99 in 10.0 mi North - - N/A   Partly Cloudy
1:53 PM 84.9 °F 84.8 °F 60.1 °F 43% 29.98 in 10.0 mi South 15.0 mph 24.2 mph N/A   Clear
2:53 PM 84.9 °F 85.9 °F 63.0 °F 48% 29.96 in 10.0 mi South 15.0 mph 20.7 mph N/A   Partly Cloudy
3:53 PM 82.9 °F 83.2 °F 60.1 °F 46% 29.96 in 10.0 mi South 15.0 mph 21.9 mph N/A   Partly Cloudy
4:53 PM 82.9 °F 83.2 °F 60.1 °F 46% 29.95 in 10.0 mi SSW 13.8 mph 23.0 mph N/A   Clear
5:53 PM 82.9 °F 83.3 °F 61.0 °F 47% 29.94 in 10.0 mi SSW 12.7 mph 21.9 mph N/A   Clear
6:53 PM 81.0 °F 81.7 °F 61.0 °F 50% 29.94 in 10.0 mi SSW 9.2 mph - N/A   Clear
7:53 PM 79.0 °F - 62.1 °F 56% 29.95 in 10.0 mi SSW 6.9 mph - N/A   Clear
8:53 PM 72.0 °F - 63.0 °F 73% 29.96 in 10.0 mi South 6.9 mph - N/A   Clear
9:53 PM 71.1 °F - 63.0 °F 75% 30.00 in 9.0 mi South 9.2 mph - N/A   Clear
10:53 PM 69.1 °F - 62.1 °F 78% 29.97 in 8.0 mi South 6.9 mph - N/A   Clear
11:53 PM 66.9 °F - 62.1 °F 84% 29.97 in 8.0 mi South 6.9 mph - N/A   Clear